Location: Spruce Knob
(38.6995°N, 79.5330°W)
Time: 15:59:20
(UTC-05:00)

FO-29 - Pass Details

Date: 07 December 2023
Orbit: 799 x 1322 km, 98.6° (Epoch: 27 February)

Event Time Altitude Azimuth Distance (km) Brightness Sun altitude
Rises 04:07:53 0° 6° (N) 4,208 12.9 -37.2°
Reaches altitude 10° 04:10:38 10° 0° (N) 3,282 12.2 -36.7°
Enters shadow 04:10:49 11° 360° (N) 3,221 12.2 -36.6°
